Cagliari, Italy

7:30 AM CET on February 28, 2017 (GMT +0100)
Elmas Mil

Weather History for LIEE - November, 2012

Change the Weather History Date:

Saturday, November 24, 2012

  Actual Average Record
Temperature  
Mean Temperature 55 °F -  
Max Temperature 66 °F 60 °F 71 °F (2014)
Min Temperature 44 °F 45 °F 33 °F (2005)
Degree Days  
Heating Degree Days 10    
Growing Degree Days 5 (Base 50)    
Moisture  
Dew Point 50 °F    
Average Humidity 80    
Maximum Humidity 94    
Minimum Humidity 59    
Precipitation  
Precipitation 0.00 in 0.07 in - ()
Sea Level Pressure  
Sea Level Pressure 30.20 in    
Wind  
Wind Speed 5 mph ()    
Max Wind Speed 10 mph    
Max Gust Speed -    
Visibility 5.9 miles    
Events      
Averages and records for this station are not official NWS values.
T = Trace of Precipitation, MM = Missing Value Source: Averaged Metar Reports

Daily Weather History Graph

Daily Weather History Graph

Search for Another Location

Airport or City:

Trip Planner

Search our weather history database for the weather conditions in past years. The results will help you decide how hot, cold, wet, or windy it might be!

Date:

Astronomy

Nov. 24, 2012 Rise Set
Actual Time 7:17 AM CET 5:03 PM CET
Civil Twilight 6:48 AM CET 5:32 PM CET
Nautical Twilight 6:15 AM CET 6:05 PM CET
Astronomical Twilight 5:43 AM CET 6:37 PM CET
Moon 2:38 PM CET (11/24) 3:19 AM CET (11/24)
Length of Visible Light 10h 44m
Length of Day
9h 46m
Waxing Gibbous, 85% of the Moon is Illuminated
Nov 24
Waxing Gibbous
Nov 28
Full
Dec 6
Last Quarter
Dec 13
New
Dec 20
First Quarter

Hourly Weather History & Observations

Time (CET) Temp. Windchill Dew Point Humidity Pressure Visibility Wind Dir Wind Speed Gust Speed Precip Events Conditions
12:15 AM 51.8 °F - 48.2 °F 88% 30.21 in 6.2 mi NNW 3.5 mph - N/A   Partly Cloudy
12:45 AM 51.8 °F - 48.2 °F 88% 30.21 in 6.2 mi NNW 4.6 mph - N/A   Partly Cloudy
12:55 AM 51.8 °F - 48.2 °F 88% 30.21 in 6.2 mi NNW 4.6 mph - N/A   Partly Cloudy
1:00 AM 52 °F - 48 °F 82% 30.24 in 6 mi NNW 4.6 mph - -   Scattered Clouds
1:15 AM 51.8 °F - 48.2 °F 88% 30.21 in 6.2 mi NNW 4.6 mph - N/A   Partly Cloudy
1:45 AM 50.0 °F - 46.4 °F 87% 30.21 in 6.2 mi NW 4.6 mph - N/A   Partly Cloudy
1:55 AM 50.0 °F - 46.4 °F 87% 30.21 in 6.2 mi NW 4.6 mph - N/A   Partly Cloudy
2:15 AM 50.0 °F - 46.4 °F 87% 30.21 in 6.2 mi WNW 4.6 mph - N/A   Partly Cloudy
2:45 AM 50.0 °F - 46.4 °F 87% 30.21 in 5.0 mi NNW 3.5 mph - N/A   Partly Cloudy
2:55 AM 50.0 °F - 46.4 °F 87% 30.21 in 5.0 mi NNW 3.5 mph - N/A   Partly Cloudy
3:15 AM 50.0 °F - 46.4 °F 87% 30.21 in 5.0 mi NW 4.6 mph - N/A   Partly Cloudy
3:45 AM 50.0 °F - 44.6 °F 82% 30.18 in 5.0 mi NW 5.8 mph - N/A   Scattered Clouds
3:55 AM 50.0 °F - 44.6 °F 82% 30.18 in 5.0 mi NW 5.8 mph - N/A   Scattered Clouds
4:00 AM 49 °F - 45 °F 83% 30.21 in 5 mi NW 5.8 mph - -   Mist
4:15 AM 48.2 °F - 46.4 °F 93% 30.18 in 5.0 mi NW 4.6 mph - N/A   Scattered Clouds
4:45 AM 48.2 °F - 44.6 °F 87% 30.21 in 5.0 mi NW 6.9 mph - N/A   Partly Cloudy
4:55 AM 48.2 °F - 44.6 °F 87% 30.21 in 5.0 mi NW 6.9 mph - N/A   Partly Cloudy
5:15 AM 48.2 °F - 44.6 °F 87% 30.21 in 5.0 mi NW 6.9 mph - N/A   Partly Cloudy
5:45 AM 48.2 °F - 42.8 °F 82% 30.21 in 5.0 mi NNW 5.8 mph - N/A   Partly Cloudy
5:55 AM 48.2 °F - 42.8 °F 82% 30.21 in 5.0 mi NNW 5.8 mph - N/A   Partly Cloudy
6:15 AM 48.2 °F - 42.8 °F 82% 30.21 in 5.0 mi NNW 5.8 mph - N/A   Partly Cloudy
6:45 AM 44.6 °F 42.2 °F 41.0 °F 87% 30.21 in 5.0 mi NNW 4.6 mph - N/A   Partly Cloudy
6:55 AM 44.6 °F 42.2 °F 41.0 °F 87% 30.21 in 5.0 mi NNW 4.6 mph - N/A   Partly Cloudy
7:00 AM 45 °F - 41 °F 79% 30.22 in 5 mi NNW 4.6 mph - -   Mist
7:15 AM 44.6 °F - 41.0 °F 87% 30.21 in 5.0 mi NNW 2.3 mph - N/A   Scattered Clouds
7:45 AM 44.6 °F 41.4 °F 41.0 °F 87% 30.21 in 5.0 mi NW 5.8 mph - N/A   Partly Cloudy
7:55 AM 44.6 °F 41.4 °F 41.0 °F 87% 30.21 in 5.0 mi NW 5.8 mph - N/A   Partly Cloudy
8:15 AM 46.4 °F 44.3 °F 41.0 °F 81% 30.21 in 5.0 mi NW 4.6 mph - N/A   Partly Cloudy
8:45 AM 48.2 °F - 42.8 °F 82% 30.21 in 5.0 mi NW 5.8 mph - N/A   Partly Cloudy
8:55 AM 48.2 °F - 42.8 °F 82% 30.21 in 5.0 mi NW 5.8 mph - N/A   Partly Cloudy
9:15 AM 51.8 °F - 44.6 °F 76% 30.21 in 5.0 mi WNW 4.6 mph - N/A   Partly Cloudy
9:45 AM 53.6 °F - 46.4 °F 77% 30.24 in 5.0 mi NW 3.5 mph - N/A   Partly Cloudy
9:55 AM 53.6 °F - 46.4 °F 77% 30.24 in 5.0 mi NW 3.5 mph - N/A   Partly Cloudy
10:00 AM 54 °F - 46 °F 67% 30.24 in 5 mi NW 3.5 mph - -   Mist
10:15 AM 55.4 °F - 48.2 °F 77% 30.24 in 5.0 mi WNW 4.6 mph - N/A   Partly Cloudy
10:45 AM 57.2 °F - 50.0 °F 77% 30.24 in 6.2 mi West 3.5 mph - N/A   Scattered Clouds
10:55 AM 57.2 °F - 50.0 °F 77% 30.24 in 6.2 mi West 3.5 mph - N/A   Scattered Clouds
11:15 AM 59.0 °F - 51.8 °F 77% 30.21 in 6.2 mi West 2.3 mph - N/A   Scattered Clouds
11:45 AM 62.6 °F - 51.8 °F 68% 30.21 in 6.2 mi SW 2.3 mph - N/A   Partly Cloudy
11:55 AM 62.6 °F - 51.8 °F 68% 30.21 in 6.2 mi SW 2.3 mph - N/A   Partly Cloudy
12:15 PM 64.4 °F - 55.4 °F 73% 30.21 in 6.2 mi South 3.5 mph - N/A   Partly Cloudy
12:45 PM 66.2 °F - 55.4 °F 68% 30.21 in 6.2 mi SSE 8.1 mph - N/A   Scattered Clouds
12:55 PM 66.2 °F - 55.4 °F 68% 30.21 in 6.2 mi SSE 8.1 mph - N/A   Scattered Clouds
1:00 PM 67 °F - 56 °F 59% 30.22 in 9 mi SSE 8.1 mph - -   Partly Cloudy
1:15 PM 66.2 °F - 55.4 °F 68% 30.21 in 6.2 mi SE 9.2 mph - N/A   Scattered Clouds
1:45 PM 66.2 °F - 55.4 °F 68% 30.18 in 6.2 mi SE 8.1 mph - N/A   Scattered Clouds
1:55 PM 66.2 °F - 55.4 °F 68% 30.18 in 6.2 mi SE 8.1 mph - N/A   Scattered Clouds
2:15 PM 66.2 °F - 57.2 °F 73% 30.18 in 6.2 mi SSE 9.2 mph - N/A   Scattered Clouds
2:45 PM 66.2 °F - 55.4 °F 68% 30.18 in 6.2 mi SSE 9.2 mph - N/A   Scattered Clouds
2:55 PM 66.2 °F - 55.4 °F 68% 30.18 in 6.2 mi SSE 9.2 mph - N/A   Scattered Clouds
3:15 PM 66.2 °F - 55.4 °F 68% 30.18 in 6.2 mi SSE 9.2 mph - N/A   Scattered Clouds
3:45 PM 66.2 °F - 57.2 °F 73% 30.18 in 6.2 mi SE 9.2 mph - N/A   Partly Cloudy
3:55 PM 66.2 °F - 57.2 °F 73% 30.18 in 6.2 mi SE 9.2 mph - N/A   Partly Cloudy
4:00 PM 65 °F - 57 °F 69% 30.20 in 9 mi SE 9.2 mph - -   Scattered Clouds
4:15 PM 64.4 °F - 55.4 °F 73% 30.18 in 6.2 mi SE 10.4 mph - N/A   Partly Cloudy
4:45 PM 62.6 °F - 55.4 °F 77% 30.18 in 6.2 mi SE 9.2 mph - N/A   Partly Cloudy
4:55 PM 62.6 °F - 55.4 °F 77% 30.18 in 6.2 mi SE 9.2 mph - N/A   Partly Cloudy
5:15 PM 62.6 °F - 53.6 °F 72% 30.18 in 6.2 mi SE 6.9 mph - N/A   Partly Cloudy
5:45 PM 60.8 °F - 53.6 °F 77% 30.18 in 6.2 mi SE 6.9 mph - N/A   Partly Cloudy
5:55 PM 60.8 °F - 53.6 °F 77% 30.18 in 6.2 mi SE 6.9 mph - N/A   Partly Cloudy
6:15 PM 60.8 °F - 53.6 °F 77% 30.18 in 6.2 mi SE 6.9 mph - N/A   Partly Cloudy
6:45 PM 60.8 °F - 53.6 °F 77% 30.18 in 6.2 mi SE 5.8 mph - N/A   Partly Cloudy
6:55 PM 60.8 °F - 53.6 °F 77% 30.18 in 6.2 mi SE 5.8 mph - N/A   Partly Cloudy
7:00 PM 61 °F - 54 °F 70% 30.21 in 9 mi SE 5.8 mph - -   Scattered Clouds
7:15 PM 60.8 °F - 53.6 °F 77% 30.18 in 6.2 mi SE 5.8 mph - N/A   Partly Cloudy
7:45 PM 59.0 °F - 51.8 °F 77% 30.21 in 6.2 mi East 4.6 mph - N/A   Partly Cloudy
7:55 PM 59.0 °F - 51.8 °F 77% 30.21 in 6.2 mi East 4.6 mph - N/A   Partly Cloudy
8:15 PM 59.0 °F - 51.8 °F 77% 30.21 in 6.2 mi East 4.6 mph - N/A   Partly Cloudy
8:45 PM 57.2 °F - 50.0 °F 77% 30.21 in 6.2 mi East 3.5 mph - N/A   Partly Cloudy
8:55 PM 57.2 °F - 50.0 °F 77% 30.21 in 6.2 mi East 3.5 mph - N/A   Partly Cloudy
9:15 PM 55.4 °F - 51.8 °F 88% 30.21 in 6.2 mi East 5.8 mph - N/A   Partly Cloudy
9:45 PM 55.4 °F - 53.6 °F 94% 30.18 in 6.2 mi East 3.5 mph - N/A   Partly Cloudy
9:55 PM 55.4 °F - 53.6 °F 94% 30.18 in 6.2 mi East 3.5 mph - N/A   Partly Cloudy
10:00 PM 56 °F - 54 °F 89% 30.21 in 7 mi East 3.5 mph - -   Scattered Clouds
10:15 PM 57.2 °F - 53.6 °F 88% 30.21 in 6.2 mi East 4.6 mph - N/A   Partly Cloudy
10:45 PM 57.2 °F - 53.6 °F 88% 30.21 in 6.2 mi West 4.6 mph - N/A   Scattered Clouds
10:55 PM 57.2 °F - 53.6 °F 88% 30.21 in 6.2 mi West 4.6 mph - N/A   Scattered Clouds
11:15 PM 55.4 °F - 51.8 °F 88% 30.18 in 6.2 mi East 4.6 mph - N/A   Scattered Clouds
11:45 PM 55.4 °F - 51.8 °F 88% 30.18 in 6.2 mi East 3.5 mph - N/A   Scattered Clouds
11:55 PM 55.4 °F - 51.8 °F 88% 30.18 in 6.2 mi East 3.5 mph - N/A   Scattered Clouds